Location: Kott?ru
(16.6209°N, 80.6208°E)
Time: 01:19:02
(UTC+00:00)

ASTRO E2 - Pass Details

Date: 18 September 2020
Orbit: 509 x 515 km, 31.4° (Epoch: 26 October)

Event Time Altitude Azimuth Distance (km) Brightness Sun altitude
Rises 13:43:00 0° 295° (WNW) 2,600 7.7 -16.6°
Reaches altitude 10° 13:45:14 10° 293° (WNW) 1,716 6.5 -17.2°
Maximum altitude 13:49:09 68° 211° (SSW) 549 2.8 -18.1°
Enters shadow 13:50:30 38° 140° (SE) 782 3.2 -18.4°
